Simultaneous Nadir Overpasses (SNOs) Predictions

Prediction of SNOs between METOP-B and NOAA-19 Satellite Orbit:

Table of predicted SNOs for the next 14.0 days since TLE Epoch: 11/16/2014
Index Date (METOP-B) Time (METOP-B) Lat,Lon (METOP-B) SZA (METOP-B ) Date (NOAA-19) Time (NOAA-19) Lat,Lon (NOAA-19) SZA (NOAA-19 ) Distance(km) Time Diff (sec)
1 11/25/2014 11:26:01 -74.68,-174.88 84.64 11/25/2014 11:24:50 -74.70,-176.35 84.61 43.38 71
2 11/25/2014 12:16:46 74.41, -8.25 95.11 11/25/2014 12:15:42 74.41, -8.30 95.11 1.42 64
3 11/25/2014 13:07:29 -74.37, 158.96 84.93 11/25/2014 13:06:47 -74.40, 158.95 84.90 3.19 42
4 11/25/2014 13:58:09 74.35, -33.77 95.06 11/25/2014 13:57:44 74.35, -33.65 95.06 3.49 25
5 11/25/2014 14:48:51 -74.35, 133.58 84.93 11/25/2014 14:48:49 -74.34, 133.60 84.95 1.66 2
6
